Location: Avon Lake
(41.5219°N, 93.5010°W)
Time: 10:37:54
(UTC+00:00)

X-37B - Pass Details

Date: 11 December 2022
Orbit: 277 x 277 km, 45.0° (Epoch: 01 November)

Event Time Altitude Azimuth Distance (km) Brightness Sun altitude
Rises 23:29:23 0° 262° (W) 1,910 5.9 -8.4°
Reaches altitude 10° 23:31:20 10° 268° (W) 1,099 4.2 -8.7°
Maximum altitude 23:33:43 50° 346° (NNW) 361 0.3 -9.1°
Enters shadow 23:35:31 16° 60° (ENE) 854 1.7 -9.4°
